Regional Weather Roundup
Issued by NWS Sterling, VA

Home | Current Version | Previous Version | Graphics & Text | Print | Product List | Glossary Off
Versions: 1 2 3 4 5 6 7 8 9 10 11 12 13 14 15 16 17 18 19 20 21 22 23 24 25 26 27 28 29 30 31 32 33 34 35 36 37 38 39 40 41 42 43 44 45 46 47 48 49

000
ASUS41 KLWX 250510
RWRLWX

REGIONAL WEATHER ROUNDUP
NATIONAL WEATHER SERVICE BALTIMORE MD/WASHINGTON DC
1200 AM EST THU DEC 25 2014

Note: "FAIR" indicates few or no clouds below 12,000 feet
with no significant weather and/or obstructions to visibility.
 TC=TEMPERATURE CELSIUS

 * =Non NWS site. Station does not report precipitation (e.g. rain,
    snow, etc.), thunder, or fog.

DCZ001-MDZ009-015-VAZ040>042-051-053>054-250600-
WASHINGTON METRO

CITY           SKY/WX    TMP DP  RH WIND       PRES   REMARKS
WASHINGTON NAT CLOUDY    58  54  86 SW5       29.57S FOG
DULLES         CLOUDY    55  54  96 SW10G20   29.56R
FT BELVOIR     CLOUDY    54  54 100 W2        29.58R
QUANTICO       CLOUDY    61  59  93 W12G18    29.59R
COLLEGE PARK*  CLOUDY    57  57 100 SW5       29.55F
LEESBURG*      CLOUDY    55  55 100 SW5       29.57R
MANASSAS*      CLOUDY    55  55 100 S9        29.55F
GAITHERSBURG*  CLOUDY    57  55  94 SW6G17    29.58S

$$

MDZ006>007-011-014-250600-
BALTIMORE METRO

CITY           SKY/WX    TMP DP  RH WIND       PRES   REMARKS
BWI AIRPORT    CLOUDY    61  59  93 SW12G21   29.54S
MD SCIENCE CTR   N/A     52  52 100 MISG      29.56S
MARTIN STATE   FOG       54  54 100 SE7       29.56F VSB 1/2
ANNAPOLIS      CLOUDY    53  52  96 S8        29.56R
FORT MEADE*    CLOUDY    59  57  94 SW9       29.57S

$$

MDZ012-015-019>023-250600-
MARYLAND EASTERN SHORE

CITY           SKY/WX    TMP DP  RH WIND       PRES   REMARKS
OCEAN CITY     CLOUDY    56  56 100 SW13      29.63S
SALISBURY      LGT RAIN  68  62  81 S9        29.60F
BAY BRIDGE AP*   N/A     57  57 100 S12       29.56F
CAMBRIDGE*     CLOUDY    61  59  94 S8G18     29.58S
EASTON*        CLOUDY    64  64 100 SW12      29.61F

$$

MDZ017>025-250600-
SOUTHERN MARYLAND

CITY           SKY/WX    TMP DP  RH WIND       PRES   REMARKS
PATUXENT RIVER CLOUDY    64  60  87 SW9       29.59S
ST INIGOES     CLOUDY    64  58  80 S12G20    29.59S
LEONARDTOWN*   CLOUDY    63  59  88 SW8       29.60S

$$

MDZ003>005-250600-
NORTH CENTRAL MARYLAND

CITY           SKY/WX    TMP DP  RH WIND       PRES   REMARKS
FREDERICK*     CLOUDY    55  52  88 SW9       29.58R
HAGERSTOWN APT CLOUDY    49  47  93 W6        29.57R
WESTMINSTER*   CLOUDY    55  55 100 SW15G22   29.52F

$$

MDZ501>502-250600-
WESTERN MARYLAND

CITY           SKY/WX    TMP DP  RH WIND       PRES   REMARKS
OAKLAND*       CLOUDY    37 N/A N/A W13G25    29.63R HAZE
CUMBERLAND*    CLOUDY    50  50 100 W21G29    29.63R

$$

VAZ025>031-250600-
SHENANDOAH VALLEY

CITY           SKY/WX    TMP DP  RH WIND       PRES   REMARKS
WINCHESTER*    CLOUDY    54  50  87 NW5       29.55R
FRONT ROYAL*   MOCLDY    59  55  88 SW7       29.53R
LURAY*         CLOUDY    63  59  88 SW12      29.56R
NEW MARKET*    CLOUDY    58  51  76 W5        29.56R
STAUNTON*      CLOUDY    58  52  79 W12G17    29.61R
WAYNESBORO*    CLOUDY    55  49  79 W10G22    29.62R

$$

WVZ021-048>050-054>055-250600-
EASTERN WEST VIRGINIA PANHANDLE

CITY           SKY/WX    TMP DP  RH WIND       PRES   REMARKS
MARTINSBURG    CLOUDY    55  43  63 W17G26    29.57R
PETERSBURG*    CLOUDY    53  38  55 W21G30    29.62R

$$

VAZ036>039-050-250600-
CENTRAL FOOTHILLS

CITY           SKY/WX    TMP DP  RH WIND       PRES   REMARKS
CHARLOTTESVILL CLOUDY    55  53  93 S15       29.57R
CULPEPER*      CLOUDY    57  55  94 SW10G16   29.57R
ORANGE*        CLOUDY    55  55 100 S14G23    29.58F
GORDONSVILLE*  CLOUDY    54  53  97 SW13G21   29.57F
WARRENTON*     FAIR      58  58 100 S9G17     29.55S

$$

VAZ055>057-250600-
NORTH AND CENTRAL PIEDMONT

CITY           SKY/WX    TMP DP  RH WIND       PRES   REMARKS
FREDERICKSBRG* CLOUDY    61  61 100 SW7G20    29.59R
STAFFORD*      CLOUDY    60  32  34 SW14      29.63R

$$

NCZ024-NYZ072-PAZ021-071-VAZ022-071-250600-
OTHER REGIONAL OBSERVATIONS

CITY           SKY/WX    TMP DP  RH WIND       PRES   REMARKS
NEW YORK CITY  CLOUDY    54  54 100 S5        29.56F FOG
PHILADELPHIA   CLOUDY    63  60  90 S16       29.55S
PITTSBURGH     CLOUDY    42  36  79 SW8       29.62R
ROANOKE        CLOUDY    53  44  71 W17G25    29.70R
RICHMOND       CLOUDY    66  61  84 S16       29.61S
RALEIGH        LGT RAIN  64  60  87 SW15      29.70R

$$

ANZ530>537-250600-
MARINE OBSERVATIONS

STATION/POSITION TIME  TEMP    WIND        PRES
                       AIR SEA DIR/SP/G
                 (UTC) (F)     (DEG/KT/KT) (MB)
THOMAS PT LIGHT  0500   52 42  180/ 16/ 17 1002.2R
BALT KEY BRIDGE  0500   56     150/  9/  9 1000.0F
COVE POINT       0500   55     180/  9/ 11 1001.4F
LEWISETTA        0500   65 44  230/ 13/ 18 1001.8R
SOLOMONS ISLAND  0500      43                N/A
PINEY POINT      0500          230/ 18/ 19   N/A

$$



USA.gov is the U.S. government's official web portal to all federal, state and local government web resources and services.